User: anonymous   Login
Location: Heilwood
(40.6210°N, 78.9150°W)
Time: 16:25:15
(UTC-04:00)
Language:

BREEZE-M DEB (TANK) - Orbit

View from above orbital plane
View from above orbital plane
View from above satellite
View from above satellite

Ground track
Ground track

The orbit data is extracted from the following two-line orbital elements,

1 29649U 06056B   15212.89713603  .00002292  00000-0  59229-3 0  9990
2 29649 049.5058 014.4298 5384032 094.1338 017.1770 04.97085000153559
Epoch (UTC): 31 July 2015 21:31:52
Eccentricity: 0.5384032
inclination: 49.5058°
perigee height: 316 km
apogee height: 15932 km
right ascension of ascending node: 14.4298°
argument of perigee: 94.1338°
revolutions per day: 4.97085000
mean anomaly at epoch: 17.1770°
orbit number at epoch: 15355

The dashed part of the orbit path shows where the satellite is in the earth's shadow,  

DLR